TimeMST,TemperatureF,Dew PointF,Humidity,Sea Level PressureIn,VisibilityMPH,Wind Direction,Wind SpeedMPH,Gust SpeedMPH,PrecipitationIn,Events,Conditions,WindDirDegrees,DateUTC
12:15 AM,39.7,22.8,51,30.44,10.0,WSW,3.5,-,N/A,,Clear,240,2012-11-23 07:15:00
12:35 AM,39.9,23.2,51,30.44,10.0,Calm,Calm,-,N/A,,Clear,0,2012-11-23 07:35:00
12:55 AM,38.8,24.8,57,30.45,10.0,South,3.5,-,N/A,,Clear,180,2012-11-23 07:55:00
1:15 AM,38.8,24.8,57,30.46,10.0,South,3.5,-,N/A,,Clear,190,2012-11-23 08:15:00
1:35 AM,37.2,24.8,61,30.47,10.0,South,5.8,-,N/A,,Clear,180,2012-11-23 08:35:00
1:55 AM,37.0,24.4,60,30.48,10.0,Calm,Calm,-,N/A,,Clear,0,2012-11-23 08:55:00
2:15 AM,33.3,22.8,66,30.49,10.0,Calm,Calm,-,N/A,,Clear,0,2012-11-23 09:15:00
2:35 AM,32.2,22.3,67,30.49,10.0,Calm,Calm,-,N/A,,Clear,0,2012-11-23 09:35:00
2:55 AM,29.8,21.7,72,30.49,10.0,SW,4.6,-,N/A,,Clear,220,2012-11-23 09:55:00
3:15 AM,28.8,20.1,70,30.50,10.0,Calm,Calm,-,N/A,,Clear,0,2012-11-23 10:15:00
3:35 AM,28.2,19.8,71,30.50,10.0,Calm,Calm,-,N/A,,Clear,0,2012-11-23 10:35:00
3:55 AM,26.6,20.1,77,30.50,10.0,Calm,Calm,-,N/A,,Clear,0,2012-11-23 10:55:00
4:15 AM,26.8,20.1,76,30.51,10.0,Calm,Calm,-,N/A,,Clear,0,2012-11-23 11:15:00
4:35 AM,25.5,18.0,73,30.51,10.0,Calm,Calm,-,N/A,,Clear,0,2012-11-23 11:35:00
5:15 AM,22.6,17.2,80,30.52,10.0,Calm,Calm,-,N/A,,Clear,0,2012-11-23 12:15:00
5:35 AM,22.6,17.4,80,30.52,10.0,Calm,Calm,-,N/A,,Clear,0,2012-11-23 12:35:00
5:55 AM,22.6,16.3,77,30.53,10.0,SSE,4.6,-,N/A,,Clear,160,2012-11-23 12:55:00
6:15 AM,22.1,17.1,81,30.54,10.0,South,5.8,-,N/A,,Clear,190,2012-11-23 13:15:00
6:35 AM,22.5,17.4,81,30.55,10.0,South,4.6,-,N/A,,Clear,190,2012-11-23 13:35:00
6:55 AM,21.4,17.2,84,30.56,10.0,South,4.6,-,N/A,,Clear,180,2012-11-23 13:55:00
7:15 AM,21.6,17.1,83,30.57,10.0,South,4.6,-,N/A,,Clear,180,2012-11-23 14:15:00
7:35 AM,23.9,18.1,79,30.58,10.0,South,3.5,-,N/A,,Clear,170,2012-11-23 14:35:00
7:55 AM,27.3,19.9,74,30.58,10.0,Calm,Calm,-,N/A,,Clear,0,2012-11-23 14:55:00
8:15 AM,30.2,20.7,68,30.59,10.0,Calm,Calm,-,N/A,,Clear,0,2012-11-23 15:15:00
8:35 AM,32.5,21.4,64,30.60,10.0,Calm,Calm,-,N/A,,Clear,0,2012-11-23 15:35:00
8:55 AM,37.8,22.1,53,30.59,10.0,ESE,9.2,-,N/A,,Clear,110,2012-11-23 15:55:00
9:15 AM,39.2,23.0,52,30.60,10.0,SE,9.2,-,N/A,,Clear,140,2012-11-23 16:15:00
9:35 AM,40.3,23.7,52,30.59,10.0,South,8.1,-,N/A,,Clear,170,2012-11-23 16:35:00
9:55 AM,41.5,23.9,50,30.59,10.0,SSE,9.2,-,N/A,,Clear,160,2012-11-23 16:55:00
10:15 AM,42.6,23.7,47,30.59,10.0,SSE,10.4,-,N/A,,Clear,160,2012-11-23 17:15:00
10:35 AM,43.0,21.2,42,30.59,10.0,SSE,10.4,-,N/A,,Clear,150,2012-11-23 17:35:00
10:55 AM,43.7,16.9,34,30.58,10.0,SSE,8.1,16.1,N/A,,Clear,150,2012-11-23 17:55:00
11:15 AM,44.6,17.8,34,30.57,10.0,South,11.5,-,N/A,,Clear,170,2012-11-23 18:15:00
11:35 AM,45.7,18.3,34,30.56,10.0,SE,9.2,16.1,N/A,,Clear,140,2012-11-23 18:35:00
11:55 AM,46.6,18.5,33,30.55,10.0,South,10.4,-,N/A,,Clear,180,2012-11-23 18:55:00
12:15 PM,47.5,17.4,30,30.54,10.0,SSE,12.7,17.3,N/A,,Clear,150,2012-11-23 19:15:00
12:35 PM,48.2,16.0,28,30.52,10.0,SSW,5.8,16.1,N/A,,Clear,210,2012-11-23 19:35:00
12:55 PM,49.1,15.6,26,30.51,10.0,South,9.2,-,N/A,,Clear,170,2012-11-23 19:55:00
1:15 PM,49.1,15.1,26,30.50,10.0,South,8.1,-,N/A,,Clear,180,2012-11-23 20:15:00
1:35 PM,50.0,15.3,25,30.49,10.0,South,8.1,-,N/A,,Clear,170,2012-11-23 20:35:00
1:55 PM,50.2,15.1,25,30.48,10.0,SSE,9.2,-,N/A,,Clear,160,2012-11-23 20:55:00
2:15 PM,50.7,14.9,24,30.47,10.0,SSE,9.2,-,N/A,,Clear,160,2012-11-23 21:15:00
2:35 PM,50.9,14.4,23,30.47,10.0,SE,6.9,-,N/A,,Clear,140,2012-11-23 21:35:00
2:55 PM,50.9,14.0,23,30.46,10.0,South,8.1,-,N/A,,Clear,170,2012-11-23 21:55:00
3:15 PM,50.9,14.0,23,30.46,10.0,SSE,9.2,-,N/A,,Clear,150,2012-11-23 22:15:00
3:35 PM,50.9,13.8,23,30.46,10.0,SSE,6.9,-,N/A,,Clear,160,2012-11-23 22:35:00
3:55 PM,50.2,13.8,23,30.46,10.0,South,5.8,-,N/A,,Clear,170,2012-11-23 22:55:00
4:15 PM,49.5,13.5,24,30.46,10.0,South,4.6,-,N/A,,Clear,180,2012-11-23 23:15:00
4:35 PM,47.7,12.6,24,30.46,10.0,SSE,3.5,-,N/A,,Clear,160,2012-11-23 23:35:00
4:55 PM,46.4,12.6,26,30.46,10.0,Calm,Calm,-,N/A,,Clear,0,2012-11-23 23:55:00
5:35 PM,40.3,10.2,29,30.46,10.0,SE,4.6,-,N/A,,Clear,130,2012-11-24 00:35:00
5:55 PM,36.1,8.6,32,30.46,10.0,SE,3.5,-,N/A,,Clear,130,2012-11-24 00:55:00
6:15 PM,38.5,10.4,32,30.46,10.0,SSE,5.8,-,N/A,,Clear,150,2012-11-24 01:15:00
6:35 PM,33.1,7.2,34,30.46,10.0,SSE,5.8,-,N/A,,Clear,160,2012-11-24 01:35:00
6:55 PM,32.5,7.3,35,30.46,10.0,West,3.5,-,N/A,,Clear,270,2012-11-24 01:55:00
7:15 PM,29.7,6.6,38,30.46,10.0,Calm,Calm,-,N/A,,Clear,0,2012-11-24 02:15:00
7:35 PM,27.3,4.3,37,30.47,10.0,North,5.8,-,N/A,,Clear,350,2012-11-24 02:35:00
7:55 PM,26.4,6.1,42,30.46,10.0,NNW,5.8,-,N/A,,Clear,340,2012-11-24 02:55:00
8:15 PM,24.6,7.0,47,30.46,10.0,NW,5.8,-,N/A,,Clear,310,2012-11-24 03:15:00
8:35 PM,23.4,5.5,47,30.46,10.0,Calm,Calm,-,N/A,,Clear,0,2012-11-24 03:35:00
8:55 PM,25.5,6.6,45,30.46,10.0,Calm,Calm,-,N/A,,Clear,0,2012-11-24 03:55:00
9:15 PM,21.9,3.7,46,30.46,10.0,ENE,3.5,-,N/A,,Clear,70,2012-11-24 04:15:00
9:55 PM,19.9,3.7,50,30.45,10.0,North,3.5,-,N/A,,Clear,360,2012-11-24 04:55:00
10:15 PM,19.4,2.7,48,30.45,10.0,North,4.6,-,N/A,,Clear,10,2012-11-24 05:15:00
10:35 PM,20.7,3.2,47,30.44,10.0,North,3.5,-,N/A,,Clear,360,2012-11-24 05:35:00
10:55 PM,18.3,2.1,49,30.44,10.0,Calm,Calm,-,N/A,,Clear,0,2012-11-24 05:55:00
11:15 PM,19.6,4.1,51,30.44,10.0,Calm,Calm,-,N/A,,Clear,0,2012-11-24 06:15:00
11:35 PM,17.4,1.2,49,30.44,10.0,NNE,5.8,-,N/A,,Clear,30,2012-11-24 06:35:00
11:55 PM,16.2,1.4,52,30.43,10.0,NNE,5.8,-,N/A,,Clear,30,2012-11-24 06:55:00